This demonstration page uses our WeatherBlox Daily Observations layout. Learn more.

Left ArrowRight Arrow

39.51506, -84.39828

Hourly Observations for May 15, 2016

Temp ( °F °C ) Dew Point ( °F °C ) Humidity (%) Winds ( mph kmh ) Pressure ( in mb ) Visibility ( mi km ) Precip ( " mm )
12:15 am 00:15 Cloudy 47 8.5 32 -0.2 55 55 SSW 5 7 30.09 1019 10 16 N/A
12:35 am 00:35 Cloudy 47 8.2 33 0.6 59 59 SW 5 7 30.09 1019 10 16 N/A
12:55 am 00:55 Cloudy 47 8.2 33 0.4 58 58 SSW 5 7 30.09 1019 10 16 N/A
1:15 am 01:15 Cloudy 47 8.2 33 0.8 60 60 SSW 6 9 30.09 1019 10 16 N/A
1:35 am 01:35 Cloudy 47 8.2 35 1.4 63 63 SW 6 9 30.09 1019 10 16 N/A
1:55 am 01:55 Cloudy 47 8.2 35 1.5 63 63 SSW 5 7 30.09 1019 10 16 N/A
2:15 am 02:15 Cloudy 47 8.2 34 1.3 62 62 SW 6 9 30.06 1018 10 16 N/A
2:35 am 02:35 Cloudy 47 8.2 35 1.5 63 63 SW 6 9 30.06 1018 10 16 N/A
2:55 am 02:55 Cloudy 47 8.2 36 2 65 65 SSW 6 9 30.06 1018 10 16 N/A
3:15 am 03:15 Cloudy 47 8.2 35 1.7 64 64 SSW 5 7 30.06 1018 10 16 N/A
3:35 am 03:35 Cloudy 47 8.2 36 2.1 66 66 SSW 5 7 30.06 1018 10 16 N/A
3:55 am 03:55 Cloudy 47 8.2 36 2 65 65 SSW 6 9 30.06 1018 10 16 N/A
4:15 am 04:15 Cloudy 47 8.2 34 1.3 62 62 SSW 7 11 30.06 1018 10 16 N/A
4:35 am 04:35 Cloudy 47 8.2 36 2.2 66 66 SW 3 6 30.06 1018 10 16 N/A
4:55 am 04:55 Cloudy 47 8.2 37 2.5 68 68 WSW 3 6 30.06 1018 10 16 N/A
5:15 am 05:15 Cloudy 44 6.9 35 1.9 71 71 WSW 3 6 30.06 1018 10 16 N/A
5:35 am 05:35 Cloudy 44 6.8 36 2.1 72 72 N N/A 30.06 1018 10 16 N/A
5:55 am 05:55 Cloudy 44 6.8 36 2.2 73 73 WSW 3 6 30.06 1018 10 16 N/A
6:15 am 06:15 Mostly Cloudy 43 6 35 1.7 74 74 WSW 5 7 30.06 1018 10 16 N/A
6:35 am 06:35 Partly Cloudy 42 5.5 35 1.4 75 75 WSW 5 7 30.06 1018 10 16 N/A
6:55 am 06:55 Sunny 42 5.5 35 1.6 76 76 WSW 5 7 30.09 1019 10 16 N/A
7:15 am 07:15 Sunny 43 6.1 37 2.5 78 78 W 3 6 30.09 1019 10 16 N/A
7:35 am 07:35 Sunny 47 8.2 38 3.5 73 73 WSW 5 7 30.09 1019 10 16 N/A
7:55 am 07:55 Sunny 49 9.6 39 3.9 68 68 W 6 9 30.09 1019 10 16 N/A
8:15 am 08:15 Partly Cloudy 49 9.6 38 3.3 65 65 WSW 9 15 30.09 1019 10 16 N/A
8:35 am 08:35 Sunny 49 9.6 37 2.7 62 62 W 9 15 30.12 1020 10 16 N/A
8:55 am 08:55 Partly Cloudy 49 9.6 34 1.3 57 57 WNW 10 17 30.12 1020 10 16 N/A
9:15 am 09:15 Partly Cloudy 49 9.6 35 1.4 57 57 undefined N/A 30.12 1020 10 16 N/A
9:35 am 09:35 Sunny 50 10.1 32 0.2 51 51 undefined N/A 30.12 1020 10 16 N/A
9:55 am 09:55 Partly Cloudy 51 10.6 32 -0.1 48 48 undefined N/A 30.12 1020 10 16 N/A
10:15 am 10:15 Mostly Cloudy 55 12.5 31 -0.5 41 41 undefined N/A 30.12 1020 10 16 N/A
10:35 am 10:35 Mostly Cloudy 52 11.2 30 -1.2 42 42 WNW 14 22 30.12 1020 10 16 N/A
10:55 am 10:55 Mostly Cloudy 52 11 29 -1.9 41 41 WNW 9 15 30.12 1020 10 16 N/A
11:15 am 11:15 Mostly Cloudy 52 11 28 -2.2 40 40 undefined N/A 30.12 1020 10 16 N/A
11:35 am 11:35 Mostly Cloudy 54 12.3 29 -1.9 38 38 WNW 7 11 30.12 1020 10 16 N/A
11:55 am 11:55 Mostly Cloudy 55 12.5 26 -3.5 33 33 W 9 15 30.12 1020 10 16 N/A
12:15 pm 12:15 Partly Cloudy 55 12.5 26 -3.5 33 33 NW 10 17 30.12 1020 10 16 N/A
12:35 pm 12:35 Mostly Cloudy 55 12.5 22 -5.4 28 28 undefined N/A 30.12 1020 10 16 N/A
12:55 pm 12:55 Mostly Cloudy 55 12.5 23 -5.1 29 29 undefined N/A 30.12 1020 10 16 N/A
1:15 pm 13:15 Mostly Cloudy 57 13.8 26 -3.5 30 30 W 12 19 30.12 1020 10 16 N/A
1:35 pm 13:35 Partly Cloudy 55 12.7 23 -5.1 29 29 WNW 6 9 30.12 1020 10 16 N/A
1:55 pm 13:55 Mostly Cloudy 55 12.6 23 -5.1 29 29 WNW 9 15 30.12 1020 10 16 N/A
2:15 pm 14:15 Mostly Cloudy 55 12.8 22 -5.3 28 28 WNW 15 24 30.12 1020 10 16 N/A
2:35 pm 14:35 Mostly Cloudy 57 13.8 25 -4 29 29 W 12 19 30.12 1020 10 16 N/A
2:55 pm 14:55 Mostly Cloudy 57 13.8 23 -5 27 27 WNW 12 19 30.12 1020 10 16 N/A
3:15 pm 15:15 Mostly Cloudy 58 14.2 25 -4.1 28 28 NNW 13 20 30.12 1020 10 16 N/A
3:35 pm 15:35 Mostly Cloudy 59 15 24 -4.3 26 26 undefined N/A 30.12 1020 10 16 N/A
3:55 pm 15:55 Mostly Cloudy 57 14 24 -4.4 28 28 undefined N/A 30.09 1019 10 16 N/A
4:15 pm 16:15 Mostly Cloudy 59 14.8 21 -6.3 23 23 NW 14 22 30.09 1019 10 16 N/A
4:35 pm 16:35 Mostly Cloudy 60 15.3 21 -6.1 22 22 W 12 19 30.09 1019 10 16 N/A
4:55 pm 16:55 Mostly Cloudy 60 15.3 21 -6.1 22 22 WNW 10 17 30.09 1019 10 16 N/A
5:15 pm 17:15 Mostly Cloudy 60 15.3 20 -6.5 22 22 W 16 26 30.12 1020 10 16 N/A
5:35 pm 17:35 Mostly Cloudy 58 14.6 20 -6.8 22 22 NW 13 20 30.12 1020 10 16 N/A
5:55 pm 17:55 Partly Cloudy 60 15.3 18 -7.8 20 20 NNW 13 20 30.12 1020 10 16 N/A
6:15 pm 18:15 Partly Cloudy 58 14.4 17 -8.2 20 20 NNW 14 22 30.12 1020 10 16 N/A
6:35 pm 18:35 Partly Cloudy 57 13.8 20 -6.4 24 24 NNW 16 26 30.12 1020 10 16 N/A
6:55 pm 18:55 Partly Cloudy 57 13.8 21 -6 25 25 NNW 9 15 30.12 1020 10 16 N/A
7:15 pm 19:15 Mostly Cloudy 57 13.8 20 -6.4 24 24 NNW 13 20 30.12 1020 10 16 N/A
7:35 pm 19:35 Mostly Cloudy 57 13.8 20 -6.7 24 24 undefined N/A 30.12 1020 10 16 N/A
7:55 pm 19:55 Partly Cloudy 55 12.5 24 -4.7 30 30 undefined N/A 30.15 1021 10 16 N/A
8:15 pm 20:15 Sunny 55 12.5 27 -2.6 35 35 undefined N/A 30.15 1021 10 16 N/A
8:35 pm 20:35 Sunny 52 11 24 -4.4 34 34 undefined N/A 30.15 1021 10 16 N/A
8:55 pm 20:55 Clear 50 9.8 22 -5.6 34 34 undefined N/A 30.18 1022 10 16 N/A
9:15 pm 21:15 Clear 49 9.6 19 -7.2 30 30 undefined N/A 30.21 1023 10 16 N/A
9:35 pm 21:35 Clear 49 9.6 20 -6.6 32 32 undefined N/A 30.21 1023 10 16 N/A
9:55 pm 21:55 Clear 47 8.2 21 -6 36 36 undefined N/A 30.21 1023 10 16 N/A
10:15 pm 22:15 Clear 47 8.2 20 -6.5 35 35 undefined N/A 30.24 1024 10 16 N/A
10:35 pm 22:35 Clear 46 7.8 22 -5.6 38 38 undefined N/A 30.24 1024 10 16 N/A
10:55 pm 22:55 Clear 44 6.6 21 -5.9 41 41 undefined N/A 30.24 1024 10 16 N/A
11:15 pm 23:15 Clear 43 5.9 22 -5.7 43 43 undefined N/A 30.24 1024 10 16 N/A
11:35 pm 23:35 Clear 42 5.5 23 -5.1 47 47 undefined N/A 30.27 1025 10 16 N/A
11:55 pm 23:55 Clear 42 5.5 22 -5.4 46 46 undefined N/A 30.27 1025 10 16 N/A

Powered by AerisWeather